Theta_e
353 353 352 352 351 349 348 347 346 345 345 345 343 339 335 334 332 331 332 333 334 335 335 336 335 334 334 333 335 338 340 340 339 338 339 340 340 340 340 340 340 340 341 341 340 339 338 337 338 340 338 332 326 324 324 326 327 329 330 331 331 332 332 333 330 326 325 327 328 330 332 334 335 336 336 336 335 335 335 335 335 336 333 327 323
353 353 352 352 350 349 346 346 346 345 345 345 343 340 336 334 332 331 331 332 333 334 334 334 333 334 334 334 334 335 337 338 338 337 338 338 339 339 339 339 338 338 339 339 339 338 338 336 336 337 339 339 336 331 327 324 324 327 329 329 330 329 329 330 329 327 325 324 326 328 331 333 334 334 334 334 334 335 335 334 333 332 329 325 324
353 352 352 351 350 348 346 345 344 344 345 344 343 340 337 335 334 332 330 330 332 332 332 331 331 333 334 335 335 335 335 335 336 337 336 336 338 338 338 338 338 338 338 337 337 338 337 337 336 336 337 338 339 339 336 332 327 324 324 326 327 328 328 328 328 327 324 323 324 325 328 331 332 333 333 333 334 336 336 334 332 330 327 325 324
353 353 352 352 351 350 348 347 345 345 345 343 342 340 338 337 335 333 331 330 331 331 331 332 332 333 333 335 335 335 335 334 334 335 335 335 336 336 336 337 338 338 338 337 337 337 337 337 336 337 337 337 337 338 339 339 336 331 327 324 323 324 325 327 327 326 324 323 323 322 324 327 329 332 334 335 335 336 336 335 333 331 328 326 324
353 353 353 352 352 351 350 349 347 345 344 343 342 341 340 339 337 335 333 331 331 330 331 332 333 334 333 333 334 335 335 334 334 334 335 335 335 334 335 336 337 337 338 337 337 337 337 337 336 336 337 337 337 337 337 338 338 337 335 331 328 325 323 324 324 325 324 323 322 322 322 323 326 330 333 335 335 336 336 336 334 333 331 329 326
354 353 354 354 353 352 351 349 346 345 344 342 342 341 341 340 338 337 335 334 332 331 331 331 332 332 333 332 333 333 333 334 334 334 334 334 335 336 336 336 336 337 337 337 337 337 337 336 336 337 338 337 337 337 337 337 337 338 337 336 334 331 328 325 323 323 323 322 322 322 322 321 322 325 329 332 335 336 336 336 335 333 332 332 329
354 354 355 354 354 353 351 349 345 343 342 341 341 341 340 339 338 337 335 335 334 332 332 331 331 331 332 332 332 332 333 334 334 334 334 335 336 336 336 336 337 337 337 337 337 337 337 336 336 336 337 336 336 336 337 337 337 337 336 336 336 337 336 332 329 325 323 322 322 324 324 324 322 322 324 328 332 335 336 336 335 332 331 331 330
355 355 355 355 355 354 352 350 348 344 342 341 341 340 340 340 339 337 336 335 335 334 332 332 331 331 332 332 332 333 334 335 335 336 336 336 337 337 336 336 336 336 336 336 336 336 336 336 335 335 335 335 333 334 335 337 337 338 337 336 337 337 338 337 336 332 329 326 325 326 328 328 326 324 322 324 327 329 329 330 330 328 327 328 328
356 356 356 356 356 356 354 353 350 347 345 343 342 341 341 340 339 338 337 336 335 335 334 333 333 333 333 333 333 335 337 337 336 336 336 336 336 337 336 336 336 336 335 334 335 336 335 335 334 334 335 334 333 333 333 335 336 337 337 337 338 338 338 338 338 337 335 332 331 331 331 330 330 329 327 325 325 324 323 325 325 325 325 326 326
358 358 357 358 358 357 356 354 352 351 348 346 344 343 342 342 341 340 338 336 335 335 335 336 336 335 334 334 335 337 337 337 335 335 336 336 336 336 336 337 337 337 337 336 336 336 335 334 334 334 334 334 334 333 333 334 335 335 335 336 338 338 338 339 339 339 338 337 335 335 334 334 334 333 332 330 329 326 324 324 324 323 325 328 327
359 359 359 359 359 358 357 356 355 353 351 348 346 344 343 344 344 342 339 338 337 337 337 337 337 337 336 335 335 337 337 336 334 335 336 335 337 338 337 337 338 339 340 340 338 337 336 336 335 335 336 336 335 334 333 334 333 333 333 334 336 337 337 338 339 340 340 340 338 337 337 336 335 334 335 334 333 331 329 327 325 324 325 327 326
360 360 361 360 360 360 359 358 356 355 354 351 349 346 346 346 346 344 343 341 339 338 338 338 338 338 337 337 337 337 336 335 335 335 335 336 338 340 341 340 340 341 341 341 340 339 338 338 338 338 337 336 335 334 335 334 334 334 334 333 335 336 337 338 338 340 341 341 340 339 339 337 337 335 336 336 334 334 333 330 329 327 326 325 324
362 361 362 362 361 361 360 360 359 358 356 355 353 351 349 348 347 346 344 343 343 341 340 339 339 339 339 338 337 337 336 335 335 336 336 337 339 342 344 344 344 343 343 344 342 341 341 340 340 339 338 338 337 338 338 337 336 336 336 337 337 338 338 337 338 340 342 343 343 342 340 339 340 336 335 336 336 336 335 334 332 331 329 327 326
362 363 362 362 363 362 362 362 361 360 360 358 356 354 352 350 348 347 348 347 346 344 341 341 341 341 340 339 337 337 337 336 336 337 337 337 339 342 345 346 347 347 346 346 345 345 343 343 342 341 340 340 341 342 341 341 341 341 341 341 341 341 340 339 339 341 343 345 346 343 339 341 341 337 337 339 341 339 338 337 336 334 332 332 331
363 363 363 363 363 363 363 363 363 363 362 361 359 357 354 352 350 349 349 349 347 344 343 342 342 341 341 340 339 339 337 337 338 339 339 339 341 343 346 348 349 349 348 348 347 347 346 345 345 344 343 344 344 345 345 345 346 346 346 346 346 345 345 343 343 343 344 344 345 343 340 341 342 340 340 343 343 342 342 341 339 338 336 335 334
364 363 363 364 364 364 364 364 364 364 364 363 362 359 357 355 351 350 350 349 348 346 345 344 342 343 342 342 342 340 337 337 339 339 340 343 345 347 348 350 351 351 351 351 349 349 348 348 348 348 348 348 349 349 349 349 350 350 350 350 349 349 348 347 347 348 349 348 347 346 345 345 345 345 345 346 345 345 344 343 342 340 338 337 335
364 364 364 364 364 364 364 365 365 365 364 364 363 362 360 358 355 353 351 350 349 347 345 344 343 344 344 344 344 341 337 337 340 341 342 346 348 351 352 352 353 353 353 353 352 352 352 352 352 353 353 353 353 353 353 353 353 353 353 352 352 352 351 351 352 353 352 352 352 351 351 350 350 350 350 350 349 348 345 344 343 342 340 339 338
364 364 364 364 364 364 364 365 365 365 365 365 364 363 362 360 358 356 353 351 349 347 346 346 345 346 346 345 345 344 341 341 343 344 346 348 350 353 353 354 354 355 354 354 354 354 355 355 356 357 357 357 357 357 357 357 356 356 355 354 355 354 354 354 354 354 353 353 354 354 354 353 353 353 352 352 352 351 349 347 346 344 342 341 340
365 365 365 364 364 365 365 365 364 365 364 364 364 363 362 362 360 358 355 353 350 348 349 350 350 347 347 347 347 348 348 348 349 350 351 353 354 355 356 356 356 356 356 356 356 357 357 358 359 359 360 360 360 361 360 359 359 359 358 357 357 357 357 356 355 356 355 355 356 356 355 355 355 354 354 353 353 352 351 350 348 345 343 342 342
365 365 365 365 365 365 365 365 365 364 364 364 364 363 363 362 362 359 358 355 352 351 351 351 352 351 350 351 351 352 353 353 354 355 355 356 357 357 358 358 357 357 358 357 357 357 358 359 359 360 361 360 361 362 362 362 361 361 361 359 359 359 360 358 358 358 357 356 356 357 357 357 356 356 355 354 354 353 353 352 349 346 345 344 343
365 365 366 366 366 365 365 365 364 364 364 364 363 363 363 362 362 360 359 358 355 353 352 351 351 351 351 352 353 354 355 355 355 356 356 357 358 358 358 358 358 358 358 358 359 359 359 360 360 361 361 362 362 362 363 363 363 363 362 362 361 362 361 361 360 358 356 356 356 356 356 357 356 356 356 355 354 353 353 353 351 348 346 345 343
362 364 366 365 366 366 365 365 365 364 364 364 363 363 363 362 362 361 361 359 357 355 354 352 352 352 352 353 353 355 355 355 356 356 356 356 356 356 357 358 358 359 360 360 360 361 361 362 362 363 363 363 363 363 363 363 363 363 363 362 362 362 362 362 361 359 357 357 357 356 356 356 355 355 355 354 354 354 353 353 352 350 348 346 344
357 360 363 363 364 364 363 364 364 364 364 363 363 363 363 362 362 361 361 360 359 358 356 355 353 353 353 354 354 355 355 356 356 356 356 357 358 357 358 359 360 361 361 362 362 362 363 363 363 364 363 363 363 363 363 363 363 363 363 363 363 363 363 364 363 361 359 359 358 358 357 357 356 356 355 354 354 354 353 353 352 352 350 348 345
354 355 357 358 360 362 362 362 363 363 364 364 363 363 363 363 362 361 361 361 360 359 358 357 357 356 356 355 357 357 356 357 358 359 361 362 361 362 362 362 362 363 362 363 364 363 364 364 364 364 364 364 364 364 364 363 363 363 363 363 363 363 364 363 363 363 361 360 359 360 360 360 359 358 357 356 355 354 354 353 353 350 349 347 346
358 356 355 355 356 358 361 362 361 363 363 363 364 364 363 362 362 362 362 361 361 361 361 361 360 359 359 358 358 359 359 360 361 362 363 363 364 364 364 364 364 365 364 365 365 365 365 365 365 365 365 364 364 363 363 363 363 363 362 362 362 362 362 362 362 362 362 361 359 359 360 360 360 360 359 358 355 354 353 352 351 348 346 346 345
358 358 357 357 355 356 359 360 361 362 363 363 363 364 363 363 363 363 363 363 363 364 364 364 364 363 362 362 361 362 362 362 363 363 363 363 364 365 366 366 366 367 367 366 366 366 366 365 364 364 363 363 362 361 361 359 357 356 355 353 353 352 351 350 349 349 349 349 348 347 348 349 351 353 354 355 355 355 353 352 350 348 347 346 345
353 356 358 358 356 356 357 359 361 362 363 363 364 364 365 365 364 364 365 365 366 366 367 367 366 365 365 365 364 364 364 364 364 364 363 363 364 364 365 365 365 364 364 364 363 363 362 362 362 361 360 357 354 351 347 343 340 339 337 337 336 336 335 335 335 335 335 335 335 335 336 336 337 339 341 344 349 351 353 353 352 350 349 346 344
350 355 358 359 358 358 358 359 361 363 364 365 367 367 368 367 366 366 366 366 367 367 367 368 367 367 367 366 366 365 366 365 364 364 363 363 363 362 362 362 362 361 361 360 360 360 359 358 355 351 347 342 337 334 332 332 331 331 332 331 332 332 332 333 333 333 333 334 334 334 334 334 335 335 336 337 340 343 347 351 353 352 350 346 343
354 358 360 360 359 359 359 360 361 362 364 366 368 369 370 369 369 369 368 367 367 366 366 367 367 367 366 366 366 366 366 366 365 364 363 363 362 361 361 361 360 359 359 358 357 355 350 346 340 336 333 331 331 331 331 331 331 331 331 331 332 331 332 333 333 333 334 333 333 333 333 333 334 335 336 337 337 338 341 345 349 350 349 346 344
360 361 361 360 359 359 359 361 362 363 365 366 367 369 369 369 369 368 368 368 368 367 367 367 367 367 367 367 366 366 365 365 365 364 363 363 361 360 360 359 358 357 355 352 348 342 336 333 331 330 330 331 330 330 331 330 330 330 331 331 331 332 332 332 332 332 332 331 331 330 331 332 332 333 334 335 336 337 338 341 345 346 345 344 343
361 361 361 360 360 360 360 362 364 365 366 366 367 368 368 369 370 369 369 369 369 369 369 368 368 367 367 367 367 366 364 364 364 363 362 361 360 360 360 357 355 353 348 341 335 332 330 330 330 330 330 330 330 330 330 330 330 330 330 330 331 331 331 331 330 330 329 330 330 329 330 331 332 332 333 333 334 335 337 339 342 343 344 343 342
361 361 361 361 362 362 363 364 365 367 368 368 368 368 367 368 369 369 369 369 370 369 368 368 368 368 367 367 367 366 364 362 361 360 359 358 358 356 352 348 344 340 336 331 329 330 330 330 329 330 329 329 329 330 330 329 329 329 329 330 330 330 329 328 328 329 329 329 329 330 331 331 332 333 332 332 332 333 335 338 340 341 342 342 342
364 363 363 364 365 366 367 366 367 367 368 369 369 368 368 368 367 367 366 366 367 368 367 367 366 365 364 364 363 362 361 359 359 358 355 353 348 343 337 333 331 330 329 328 329 329 329 329 329 329 328 329 330 329 329 328 328 328 328 329 329 328 327 327 327 328 328 329 329 330 330 331 333 333 332 331 331 332 333 336 339 341 341 341 341
366 365 365 365 366 367 367 366 368 369 369 369 369 369 368 367 367 366 364 364 364 364 363 362 362 362 361 361 359 358 357 354 351 349 344 338 334 331 329 328 329 328 328 329 329 329 328 329 328 328 329 329 329 328 328 327 326 327 327 328 327 327 326 327 327 327 328 328 329 329 330 330 332 333 333 332 332 332 333 334 336 339 341 341 341
366 366 366 365 365 366 366 366 367 368 368 368 368 368 367 366 366 364 363 363 363 361 359 357 355 354 354 352 349 346 344 341 337 335 332 329 328 328 328 328 328 329 328 329 328 328 328 328 328 329 329 329 328 327 327 326 326 327 327 327 327 327 325 325 326 327 328 329 330 330 329 330 330 332 333 334 333 333 334 334 335 337 339 340 340
364 364 365 365 366 366 366 365 366 366 366 366 366 366 365 364 362 362 361 360 360 359 355 349 343 339 338 337 335 332 331 330 329 328 328 328 328 328 328 329 328 329 329 328 328 328 327 328 328 329 329 328 327 327 327 326 327 328 329 328 327 327 326 325 326 328 330 330 330 330 329 329 330 331 332 333 335 335 335 335 335 336 337 339 340
362 362 363 364 364 364 364 364 363 363 364 363 361 360 359 358 357 355 355 353 352 350 346 342 337 333 330 329 329 328 327 327 327 328 329 328 329 328 328 328 328 328 328 328 327 327 327 328 329 329 329 327 327 327 327 327 328 328 329 329 329 329 327 326 326 329 331 331 331 330 329 329 330 330 331 332 334 335 335 335 335 335 335 336 337
360 361 362 362 362 362 362 361 360 359 359 359 357 355 354 351 349 347 345 342 341 340 336 334 332 329 328 327 327 328 328 328 329 329 328 328 328 329 328 328 328 328 327 327 326 326 327 329 329 329 329 327 327 327 327 328 328 329 329 330 330 330 330 328 326 327 331 333 332 331 330 329 328 328 329 331 331 332 332 332 333 333 331 330 329
356 356 357 358 359 359 358 358 357 356 354 352 350 347 345 343 340 338 336 334 333 332 331 329 329 328 328 328 328 329 329 330 330 330 329 328 328 328 329 329 329 328 328 328 327 327 328 329 330 329 329 328 328 328 328 329 330 330 331 331 331 332 332 330 327 326 329 332 333 332 331 331 330 329 329 329 329 329 329 329 330 330 329 328 327
351 350 350 351 352 351 349 349 350 348 346 344 342 341 340 338 336 334 332 331 330 330 330 329 329 330 331 330 330 330 331 332 331 330 329 329 329 328 329 331 332 331 330 330 330 328 328 329 330 330 330 330 330 330 330 330 331 331 331 332 333 332 331 330 330 328 327 329 331 330 330 330 331 331 331 330 330 330 330 329 330 329 329 329 329
347 347 346 346 346 345 343 342 344 344 343 342 341 340 339 338 336 335 333 333 333 332 332 331 331 332 332 331 331 331 332 332 333 332 332 331 331 330 330 332 333 332 331 331 330 328 328 329 329 329 329 329 329 329 330 330 330 330 330 331 332 332 331 330 330 329 327 327 328 327 326 326 327 328 329 328 327 328 328 329 329 329 328 328 327
344 345 344 344 344 343 342 341 340 340 339 338 338 338 338 337 337 336 335 335 335 334 333 333 333 333 333 332 332 332 331 331 332 333 333 333 333 332 332 333 333 332 330 329 329 328 328 328 328 328 328 327 327 327 327 327 326 326 326 327 329 330 329 328 328 328 327 327 327 326 325 324 323 324 324 324 324 324 324 324 325 325 325 324 322
343 342 342 342 341 341 340 339 338 337 336 336 337 338 338 337 337 337 336 335 335 334 334 334 334 334 334 333 333 332 331 331 331 332 332 332 333 332 332 331 330 329 328 327 328 328 328 328 327 327 327 326 326 326 326 326 325 325 325 326 326 326 326 326 326 325 325 325 325 325 325 324 322 322 323 323 323 323 323 322 322 322 322 321 321
341 340 340 340 340 339 339 338 337 336 335 335 336 337 337 337 337 337 336 335 335 335 334 334 334 334 333 333 332 332 331 331 331 331 331 331 331 331 330 329 328 328 327 327 327 328 328 328 328 327 327 327 326 326 326 326 326 326 325 326 326 325 325 325 325 325 325 324 323 324 323 323 323 322 322 322 322 322 322 322 322 321 321 321 320
339 339 339 338 338 337 337 336 336 335 334 335 336 336 337 336 336 336 336 336 335 335 334 334 334 334 333 333 332 331 331 331 331 331 330 330 331 331 330 330 328 328 328 328 328 328 328 328 328 327 327 326 326 326 326 326 326 325 324 325 325 325 325 326 327 326 326 324 323 323 323 323 322 322 322 322 321 321 321 320 320 320 320 320 319
337 337 337 337 337 337 336 336 335 335 335 335 335 336 335 336 335 336 335 335 335 335 334 334 334 334 333 333 332 331 330 331 331 330 330 329 329 330 331 330 330 329 329 328 328 329 328 328 327 327 326 326 326 326 326 326 325 324 324 323 324 324 324 325 327 327 326 325 324 324 324 324 323 323 323 323 322 322 322 321 321 320 320 320 320
336 335 335 335 335 336 335 335 335 335 335 335 335 335 335 335 334 335 334 334 334 334 334 334 334 333 333 333 333 332 331 332 331 331 330 329 329 330 331 330 330 330 329 329 328 328 327 327 326 326 325 325 325 325 325 324 324 323 323 323 323 322 322 323 325 326 326 326 325 324 324 324 324 323 323 323 323 323 323 323 322 322 322 322 322
336 335 335 334 335 335 334 334 335 335 335 334 334 334 333 334 333 334 333 333 333 333 333 332 332 332 333 333 332 332 332 332 331 330 329 328 329 330 330 329 329 329 329 328 328 327 326 325 325 324 324 324 324 324 324 323 323 323 322 322 322 322 321 321 322 323 324 325 326 325 324 324 324 324 323 323 322 322 323 322 322 322 322 322 322
335 334 333 332 332 332 332 332 332 333 332 332 332 332 331 331 331 331 331 330 330 330 329 329 329 330 331 331 331 330 331 330 330 329 328 328 327 328 329 329 329 329 329 328 327 326 325 324 323 323 323 322 322 322 322 322 321 321 321 321 320 321 320 320 320 320 321 322 324 325 325 325 325 324 324 323 322 321 321 321 321 321 321 321 321
331 330 328 327 326 326 326 327 328 327 327 327 327 327 327 326 326 327 327 327 327 326 326 326 328 328 328 329 329 329 329 329 329 328 328 327 327 328 328 328 329 329 328 328 327 325 324 323 323 322 322 321 321 321 321 321 320 319 318 318 317 317 318 318 319 319 320 321 321 323 323 323 324 324 323 322 321 320 320 320 320 320 320 319 319
324 324 324 323 322 322 321 322 322 322 322 322 322 322 322 323 323 324 324 325 325 325 325 325 326 326 326 326 326 327 327 327 327 327 327 326 327 327 327 328 328 327 327 326 325 324 323 322 322 322 321 320 320 320 319 319 318 316 315 314 314 313 314 314 315 316 318 319 320 321 321 321 322 322 321 321 320 320 319 319 318 318 318 318 317
Wind_Speed
49 48 48 47 47 45 44 43 43 43 42 40 40 39 38 37 36 35 35 34 33 32 30 29 27 26 25 25 25 25 25 24 24 25 25 26 25 24 23 22 22 21 20 20 20 19 19 18 17 16 16 18 20 21 22 22 22 22 22 23 23 23 23 25 26 24 21 21 21 20 21 22 22 22 21 20 20 20 21 22 21 21 21 19 17
48 48 47 47 46 45 43 43 43 43 42 42 41 40 39 38 37 36 36 35 34 33 32 31 29 28 27 27 27 27 27 26 25 25 25 26 26 26 25 25 24 24 23 23 23 22 22 21 20 19 18 19 19 21 22 24 25 25 25 25 25 24 25 25 26 26 24 22 22 23 23 24 25 23 23 22 22 21 22 22 22 22 21 20 19
48 47 47 47 46 45 44 43 43 43 43 43 42 41 41 39 38 37 36 35 35 35 34 33 31 30 29 28 28 28 28 28 27 27 26 26 27 27 27 27 26 25 25 25 25 24 24 23 22 21 21 22 21 21 22 23 25 27 27 27 27 27 26 27 27 28 27 23 23 25 26 27 27 26 25 24 23 23 25 25 24 23 21 20 20
48 47 47 47 47 46 46 45 44 44 44 44 43 42 42 40 39 38 36 36 36 36 35 34 33 33 32 31 29 29 29 29 28 28 28 28 28 27 27 27 28 27 26 26 25 26 26 25 24 23 23 24 23 23 23 23 24 26 27 28 29 29 28 29 29 29 29 27 25 24 27 29 30 29 28 27 26 27 28 27 27 26 24 22 22
48 47 47 47 47 47 46 46 46 46 45 45 44 43 43 42 41 40 38 37 36 36 36 35 35 35 34 33 32 31 30 29 29 29 28 28 28 28 28 28 28 28 28 27 27 27 27 27 26 25 25 26 25 25 25 25 25 26 27 28 29 30 30 31 31 31 32 32 29 26 26 29 31 31 31 30 30 30 30 30 30 29 27 25 24
48 47 47 47 47 46 46 45 45 45 45 45 44 43 43 43 42 42 40 39 37 37 36 36 36 35 35 34 34 33 32 31 30 30 29 28 28 28 29 29 29 29 29 29 29 28 28 28 27 27 27 28 27 26 26 26 27 27 28 28 28 30 31 31 32 33 33 34 32 30 29 30 32 34 34 33 33 33 33 33 32 32 31 30 28
48 48 47 47 47 46 45 44 43 44 44 44 44 44 43 43 43 42 41 41 40 38 37 37 36 36 35 34 34 34 34 33 32 32 31 30 30 29 29 30 30 30 30 30 30 30 30 29 29 29 29 29 28 28 27 28 29 29 29 28 28 30 31 32 32 33 34 35 35 33 32 31 32 34 35 35 36 37 36 36 37 36 34 34 33
49 48 47 48 48 47 45 43 42 42 43 44 44 44 44 44 43 42 41 42 42 40 39 37 37 36 36 35 35 35 35 35 34 34 33 32 32 32 31 31 31 31 31 31 31 32 32 31 31 32 32 32 30 29 29 29 30 31 30 30 30 31 32 32 33 34 35 36 37 36 35 34 33 34 35 36 38 40 40 40 41 40 37 36 36
48 48 48 48 48 46 45 43 42 42 43 44 45 45 45 44 43 43 42 42 42 41 40 39 38 38 37 37 36 36 37 37 36 35 35 34 34 34 33 33 33 33 32 33 33 33 34 33 34 33 33 33 32 32 31 30 31 32 31 31 32 33 34 34 35 36 36 37 38 38 38 38 36 35 36 38 40 40 39 40 42 41 39 38 37
47 47 47 47 47 46 45 44 43 43 43 44 45 46 46 45 45 44 43 43 42 42 41 41 41 40 39 38 38 38 39 38 37 36 36 35 35 35 35 35 35 35 35 35 34 34 35 35 35 34 34 34 34 34 33 33 33 33 32 32 33 34 36 37 37 38 38 39 40 40 41 42 40 37 38 38 39 39 40 41 42 41 40 40 39
47 47 47 46 45 45 45 45 44 44 44 44 45 46 46 46 46 46 45 44 43 42 42 43 42 42 41 40 40 40 40 39 38 37 37 36 37 37 36 36 37 37 37 37 37 36 36 36 36 36 36 36 36 35 35 35 35 35 35 34 34 35 37 38 40 40 41 42 42 42 44 44 41 40 40 39 39 40 41 41 42 41 41 42 42
47 46 45 44 44 44 44 44 45 45 45 45 45 46 46 47 47 47 47 46 44 43 43 43 43 42 42 42 41 41 41 39 38 38 38 38 38 38 38 38 38 39 39 39 39 38 38 38 38 38 38 38 37 37 37 37 37 37 38 37 38 38 39 40 42 42 43 44 44 45 46 46 43 43 43 42 41 41 41 42 43 43 43 43 43
46 45 44 43 43 43 43 43 44 45 45 46 46 46 47 48 48 48 48 47 45 45 44 44 44 43 43 43 42 42 41 40 39 39 39 38 38 39 40 40 40 40 40 40 40 39 39 39 39 40 39 39 39 39 39 39 39 39 40 40 41 42 42 43 44 44 45 46 47 48 47 47 46 45 43 42 43 43 43 43 43 44 45 45 44
45 45 44 43 42 41 41 41 41 42 42 44 45 46 47 48 48 48 47 47 47 46 46 45 45 45 44 43 43 43 42 40 40 39 39 38 37 38 39 40 40 40 40 40 40 40 40 40 41 40 40 40 41 41 41 42 41 42 43 43 44 45 45 46 46 46 46 48 50 51 49 48 49 47 45 45 47 47 46 45 44 44 45 44 42
45 45 44 43 42 41 41 40 39 39 39 41 43 45 46 47 48 48 47 47 48 47 46 46 46 46 45 44 43 43 42 40 39 38 37 36 35 36 37 39 40 41 40 40 40 40 40 40 41 42 41 41 42 42 43 43 44 45 46 47 47 47 48 50 49 48 48 48 50 51 50 50 50 50 48 49 50 50 49 48 47 45 43 42 43
46 46 45 44 42 41 41 40 39 38 37 39 41 42 44 45 46 47 47 47 47 47 47 47 46 46 46 45 44 43 41 39 39 37 36 35 34 35 36 37 38 39 40 39 39 39 39 40 41 42 42 42 42 42 43 43 45 47 48 49 50 51 53 54 53 51 51 50 51 52 52 51 51 51 51 52 53 53 51 51 50 48 45 46 47
46 46 46 45 43 42 41 40 39 38 38 39 40 40 41 42 43 45 46 47 47 47 47 47 46 46 46 46 45 44 40 38 38 37 35 34 34 34 35 36 37 38 38 38 38 39 39 40 40 41 42 42 42 41 42 43 45 47 49 50 51 53 57 57 54 53 54 53 53 54 54 54 53 53 54 55 56 55 54 55 55 52 49 50 51
46 47 46 45 43 42 41 41 40 39 39 39 39 38 39 40 41 42 44 46 46 47 46 46 46 46 46 46 46 45 42 40 39 38 36 35 35 35 35 35 37 38 38 38 38 39 40 40 40 41 43 43 42 42 42 43 46 47 49 50 52 55 59 57 54 55 55 54 55 55 55 55 55 56 56 57 58 58 58 60 58 54 52 53 53
45 46 46 44 43 42 41 41 40 40 39 38 38 37 37 38 38 40 41 43 44 45 46 47 47 46 46 46 46 46 44 43 42 41 39 37 36 36 35 36 38 39 38 38 39 40 40 41 41 42 43 43 43 43 43 44 46 47 48 50 53 57 58 55 54 55 55 55 56 56 56 57 56 57 57 57 58 60 63 64 61 56 54 55 54
42 43 44 43 43 42 42 41 41 40 40 38 37 36 36 36 37 39 40 41 42 43 45 46 47 47 46 46 46 46 45 43 42 41 40 39 38 37 37 38 39 39 38 39 40 40 40 41 40 40 41 41 41 42 43 45 46 47 48 50 54 56 56 53 54 55 54 53 55 56 58 60 59 59 59 59 59 61 64 66 64 61 59 59 58
38 40 42 42 43 42 42 41 41 40 39 37 37 37 37 37 38 38 39 39 40 41 43 45 46 46 45 45 45 44 43 42 42 41 40 39 38 37 37 39 39 38 39 40 40 40 40 39 39 38 38 39 39 40 41 43 45 46 48 50 52 53 52 53 54 54 51 49 52 55 57 59 60 61 61 61 62 62 64 66 66 66 65 63 62
35 37 39 40 41 42 42 42 41 39 38 37 37 38 38 38 38 38 38 39 39 40 41 42 43 44 44 44 43 42 41 40 40 40 40 39 38 38 38 38 36 36 37 39 38 38 38 37 37 37 38 38 38 38 38 39 41 43 44 46 47 49 50 52 54 55 52 49 51 56 58 58 59 60 60 61 62 62 63 65 67 68 68 68 67
29 32 35 37 38 39 40 40 40 39 38 38 38 38 38 39 39 39 38 38 39 39 40 40 41 42 42 42 41 40 38 37 37 37 36 35 35 35 34 34 33 33 35 36 35 34 34 35 35 36 36 36 36 36 37 37 39 40 42 43 45 47 49 51 54 56 56 53 53 57 59 59 60 61 61 61 62 62 63 64 66 68 69 69 69
26 27 30 32 34 35 35 35 36 36 37 37 37 38 39 39 40 39 39 38 38 38 38 38 38 39 39 39 38 36 35 34 33 33 31 29 29 29 28 28 28 29 30 30 30 31 32 34 35 35 35 36 37 38 38 39 41 42 43 45 46 49 51 53 55 56 57 56 56 58 60 61 62 64 64 64 63 63 63 64 65 64 63 64 65
29 28 28 28 30 32 32 32 32 33 34 35 36 37 38 39 40 40 38 37 37 36 36 35 35 36 36 36 35 35 34 33 32 31 29 27 26 26 26 26 27 28 29 29 31 32 34 35 36 36 36 37 37 38 39 39 40 42 43 44 46 47 50 52 54 56 57 57 58 59 60 62 64 65 65 64 63 62 61 61 62 61 59 59 61
28 30 30 29 28 28 30 30 30 31 32 33 34 35 36 37 38 38 37 36 35 34 33 33 33 33 33 32 33 34 34 33 31 29 27 26 25 25 26 26 28 29 30 30 31 32 32 32 32 32 32 33 33 34 35 36 38 40 41 43 45 47 49 51 54 57 58 60 60 60 60 62 63 64 64 62 61 61 59 59 61 61 61 60 61
24 26 29 30 29 28 28 29 29 29 30 31 32 34 35 35 36 37 36 35 34 32 32 31 31 31 31 30 31 32 33 32 30 28 26 25 24 24 24 24 25 25 24 24 25 25 26 26 27 28 29 30 31 32 34 35 37 38 38 38 39 41 43 46 49 51 53 55 56 56 57 58 58 60 61 61 61 60 60 61 62 62 61 60 59
21 22 25 28 29 28 28 28 29 29 30 32 33 34 34 34 35 34 33 32 31 30 30 30 29 28 28 28 29 30 30 30 29 27 26 24 22 22 21 21 20 19 19 20 21 21 22 23 25 27 28 28 28 29 30 30 30 29 30 31 31 32 34 36 39 41 43 45 48 50 52 53 54 56 58 59 59 59 59 61 63 63 61 58 57
17 19 22 26 27 26 27 29 29 30 31 33 34 34 33 32 32 30 29 28 27 26 26 26 26 26 26 27 27 28 28 28 27 25 24 22 20 19 18 18 18 18 18 19 19 20 21 22 22 23 23 23 23 24 25 25 26 26 28 30 30 30 30 31 32 33 34 35 37 40 44 47 51 54 55 56 57 57 56 58 60 61 59 58 59
17 19 22 25 25 26 27 29 30 31 32 34 34 33 31 30 29 27 26 25 25 25 24 23 24 24 25 26 27 26 27 27 26 24 22 20 19 18 18 18 18 17 17 18 19 19 19 18 18 18 19 20 21 22 23 24 25 25 25 25 25 26 25 25 25 27 28 30 33 37 42 47 49 51 53 56 57 56 54 54 56 57 57 58 61
18 20 22 24 25 26 28 30 31 32 33 33 32 31 30 28 27 26 26 26 25 24 24 24 24 24 24 25 26 25 24 23 22 21 20 19 18 18 18 17 16 17 18 17 16 15 14 15 16 16 17 19 20 21 22 21 21 21 21 21 21 22 22 24 27 30 33 35 37 40 44 48 50 51 52 53 55 54 52 51 53 55 57 59 61
18 20 22 23 25 27 29 30 31 31 32 31 30 29 28 27 26 25 24 25 25 24 23 23 23 22 21 22 23 22 21 20 19 19 18 17 16 15 15 14 15 15 15 14 13 13 13 14 15 16 17 19 19 18 17 17 19 20 22 23 22 22 24 28 32 36 38 40 42 43 46 49 50 50 49 49 51 51 50 49 51 53 54 56 60
18 20 22 24 25 27 28 29 30 30 30 30 29 28 27 27 26 23 21 20 21 21 20 20 19 19 18 18 19 20 20 20 19 17 15 13 12 12 12 12 12 13 12 12 13 13 13 14 14 15 16 15 14 13 14 17 19 22 23 23 22 24 27 31 35 37 38 40 42 44 46 48 48 46 44 42 43 45 45 45 47 50 51 52 55
20 21 23 25 26 26 26 27 28 29 30 29 28 27 26 26 25 24 22 21 20 20 20 19 18 18 19 19 19 19 18 16 14 12 11 10 10 10 10 10 11 12 12 12 12 11 11 12 12 12 11 10 10 12 14 17 20 21 22 22 23 27 31 33 35 36 36 38 40 42 45 47 46 42 39 35 32 34 38 39 40 43 47 50 54
21 22 23 24 25 25 25 25 26 28 29 28 27 27 26 25 24 24 23 23 23 22 22 21 19 16 15 15 15 13 12 11 9 9 9 9 10 10 10 10 11 11 11 10 9 9 10 9 9 7 7 7 9 11 13 17 19 21 21 22 25 29 32 33 34 35 34 35 36 37 40 45 47 42 35 30 27 26 29 32 34 38 43 49 53
20 21 22 23 24 24 24 25 27 29 29 28 28 27 26 25 25 24 24 24 23 23 22 20 18 16 14 12 11 10 9 9 8 8 9 9 9 9 9 10 10 9 8 7 7 7 7 6 5 4 5 6 8 9 12 15 18 18 19 21 25 29 31 32 32 32 33 33 34 35 37 42 47 45 36 28 24 23 25 28 28 28 34 43 48
20 21 22 23 24 24 25 26 28 29 28 27 27 26 25 25 25 24 24 23 22 21 20 18 17 17 15 14 12 11 10 10 9 9 8 8 8 8 8 8 7 6 5 4 4 5 5 4 3 3 3 5 6 8 10 13 15 16 17 19 23 26 29 30 29 29 31 32 31 32 34 37 41 41 35 28 22 19 20 23 23 21 21 26 34
20 21 23 24 24 26 27 27 27 27 26 25 25 26 26 25 24 23 23 22 20 19 18 17 16 16 16 15 13 12 11 11 10 10 9 8 8 8 7 6 5 4 3 2 3 3 4 3 3 3 4 5 7 9 11 12 13 15 16 18 21 24 27 27 25 26 29 30 28 29 31 32 33 33 31 27 22 13 5 2 5 5 7 14 22
22 23 24 25 25 26 28 29 29 28 28 28 28 28 27 26 25 23 23 22 21 19 18 17 15 14 13 13 12 11 11 11 11 10 9 9 8 7 6 5 4 3 2 1 2 3 3 3 4 4 5 7 8 10 11 12 13 13 15 17 19 21 23 25 23 23 25 26 27 28 30 30 30 31 32 32 30 27 26 26 26 29 34 38 38
25 26 28 28 28 28 29 30 30 30 29 30 29 28 27 27 26 25 24 23 22 20 19 17 15 14 11 10 9 9 9 11 12 11 10 8 6 5 4 5 4 3 1 1 2 3 3 3 4 5 6 7 8 10 11 12 12 13 15 16 17 18 20 22 21 21 22 23 24 26 28 29 29 29 31 32 32 32 34 37 38 40 42 43 41
28 30 30 31 32 32 33 33 32 31 30 29 27 26 25 25 24 24 23 21 20 19 18 17 16 14 12 10 8 7 8 9 10 10 9 7 5 4 4 4 4 2 1 1 2 2 2 3 4 5 6 7 8 10 11 12 12 14 15 16 16 17 18 19 20 20 20 20 20 21 24 26 26 27 28 30 30 31 32 35 37 39 40 42 42
28 30 31 32 33 34 34 33 33 32 31 29 28 27 26 26 25 24 22 21 20 19 19 18 17 15 14 12 9 7 7 7 8 8 8 7 6 5 5 4 3 2 0 1 1 1 2 3 4 5 6 8 9 10 11 13 14 15 15 16 15 15 16 17 17 18 17 17 17 17 19 21 23 24 24 26 27 29 30 31 32 33 33 35 35
30 31 32 32 33 34 34 33 33 32 32 31 30 30 29 28 27 25 23 21 20 18 18 18 17 16 15 14 11 10 9 9 9 8 8 7 7 6 6 4 3 2 2 2 2 2 3 4 5 5 6 8 9 10 11 12 13 14 14 15 14 13 13 14 15 15 15 15 15 15 16 17 20 21 21 21 21 23 24 25 26 26 26 27 26
31 32 33 34 34 35 35 34 32 31 31 31 30 30 29 28 27 26 23 21 18 16 16 17 16 15 14 12 11 10 10 9 9 8 7 7 6 6 6 6 6 5 4 3 3 3 3 4 4 4 5 6 7 8 9 9 10 12 14 15 14 13 12 12 14 15 14 13 13 13 13 13 14 16 17 17 17 17 18 18 18 19 19 19 18
28 29 30 31 32 33 32 31 30 30 30 30 30 29 28 27 26 25 22 20 18 17 16 16 15 13 12 10 9 8 8 8 7 6 6 5 5 5 5 5 6 5 4 3 2 2 2 2 2 2 2 4 5 6 6 7 9 10 12 14 15 15 14 13 13 13 12 11 12 12 11 11 11 12 12 13 13 14 14 14 15 16 17 18 18
27 28 28 28 29 30 30 29 29 29 28 28 27 27 26 26 25 23 21 20 19 17 15 14 12 11 11 10 8 7 7 7 5 4 3 2 2 2 2 2 3 4 4 3 2 1 1 0 0 0 1 3 4 4 4 6 7 9 11 12 13 15 15 14 11 10 9 9 9 9 9 10 11 11 10 10 10 11 12 12 12 13 14 15 15
25 25 25 25 26 27 27 27 27 26 26 25 25 25 25 24 23 22 20 19 17 16 15 13 11 10 11 10 9 8 8 7 6 4 3 1 2 3 3 3 3 3 3 3 4 3 2 2 1 1 0 1 2 3 4 5 6 7 9 10 10 11 13 13 11 9 8 7 6 6 6 7 8 9 9 8 7 7 8 9 9 9 9 9 9
24 23 21 21 21 22 23 23 23 23 23 23 23 23 22 21 20 19 18 17 16 15 13 11 11 10 11 11 11 11 10 9 7 4 2 2 3 4 5 5 5 5 4 5 5 5 4 3 2 2 1 1 1 2 3 4 5 5 6 7 8 9 10 10 9 8 8 7 5 4 3 3 4 5 6 6 6 5 5 6 6 6 5 5 5
26 23 20 17 16 17 18 18 19 20 20 20 20 19 18 17 16 15 15 14 13 11 10 10 10 10 9 9 8 8 8 7 6 4 3 4 4 5 5 6 6 6 6 7 8 7 6 5 4 3 3 2 2 3 3 3 3 4 4 5 6 6 7 7 7 7 7 7 6 4 4 4 4 3 3 4 4 4 3 3 3 4 4 5 6
26 22 19 17 16 17 17 18 18 18 17 17 17 16 15 14 13 12 11 10 9 9 9 10 10 9 8 7 7 6 7 7 6 5 5 5 5 5 6 7 8 9 9 9 9 9 7 6 5 4 4 4 4 5 6 6 6 6 5 5 5 7 7 7 7 6 6 6 6 5 4 4 4 5 4 2 2 2 1 1 2 3 3 4 5
26 24 21 20 21 21 21 21 21 21 20 19 18 17 17 16 15 14 13 12 11 11 10 10 9 8 7 6 6 6 6 6 5 5 5 6 6 6 7 8 9 10 11 10 9 9 8 7 6 6 6 6 7 7 8 9 8 8 7 6 7 8 9 8 8 7 6 5 5 5 5 4 4 5 4 4 4 4 4 3 3 3 3 3 4
Wind_Direction
218 220 221 222 223 224 226 226 227 228 228 227 226 225 225 224 223 222 220 221 221 222 224 225 227 229 230 230 229 228 229 227 226 225 227 230 233 235 238 240 242 243 242 243 243 244 246 246 246 246 245 244 244 243 243 242 238 233 232 234 235 238 241 241 246 251 252 249 249 247 244 246 247 247 250 253 255 257 260 265 269 271 270 263 254
218 220 221 222 224 225 227 227 227 228 228 228 227 226 225 224 224 222 220 221 222 223 225 226 228 230 231 232 231 230 231 231 231 229 228 230 233 235 238 240 244 246 247 247 247 247 249 250 249 247 245 246 245 245 246 246 245 243 241 240 240 241 243 246 249 253 255 251 249 248 247 247 248 249 250 252 253 255 257 261 265 266 264 256 249
219 220 221 223 224 225 226 227 228 229 229 229 228 226 226 225 225 224 222 221 222 224 226 228 229 230 231 232 232 232 233 234 234 234 232 231 232 235 237 239 243 247 249 249 249 251 252 252 251 249 247 247 247 246 248 248 248 248 248 247 248 247 247 248 251 255 259 258 253 250 249 249 250 251 253 255 256 254 255 258 260 261 258 252 249
219 220 222 223 224 224 225 226 227 228 229 229 228 227 226 226 226 226 224 223 223 224 226 228 229 230 231 231 233 233 234 235 236 236 235 233 232 234 237 239 243 246 248 250 250 252 253 254 253 252 251 250 249 248 249 249 250 251 252 252 252 253 252 252 253 255 258 261 258 253 250 251 252 254 254 255 255 254 255 257 258 258 257 254 252
219 221 223 223 223 223 225 226 227 228 229 230 229 228 227 227 227 227 227 226 225 226 226 227 229 230 230 231 233 235 235 236 237 238 238 236 235 235 236 239 243 246 248 250 252 252 253 254 255 255 254 253 252 252 251 252 253 254 256 256 256 256 255 255 256 256 257 259 259 256 252 251 252 253 253 253 254 254 255 256 257 258 259 258 256
220 221 223 223 223 224 225 227 229 230 230 230 230 230 229 228 228 227 228 228 228 228 228 228 229 230 231 232 234 236 238 238 239 241 242 241 240 238 237 238 242 245 247 249 251 252 253 255 255 256 255 254 254 254 255 256 256 257 258 260 261 260 258 257 257 257 257 259 260 258 254 250 250 252 252 253 254 255 256 257 258 259 260 260 259
219 221 222 223 224 225 226 228 230 231 232 232 232 231 230 230 229 228 229 229 230 230 230 230 231 232 233 235 236 238 239 240 241 243 243 244 245 244 243 241 242 244 247 248 249 251 253 255 256 256 257 257 258 259 259 259 260 260 260 261 263 263 261 260 259 257 256 258 259 260 257 253 250 250 251 252 253 255 256 257 258 259 260 260 260
218 220 222 223 225 226 228 229 231 232 233 234 233 233 232 231 231 230 230 230 231 232 232 233 233 234 235 237 238 240 240 241 242 243 244 244 245 246 247 246 245 245 247 248 249 250 252 255 257 257 259 260 262 263 263 264 263 264 264 264 264 264 264 263 262 260 258 258 259 260 261 259 254 251 250 249 249 251 253 254 257 259 260 260 261
218 219 221 224 226 227 228 229 231 232 233 233 234 233 233 233 233 232 232 231 232 232 234 235 235 236 237 238 239 240 241 242 244 244 245 245 246 247 249 249 249 249 250 251 252 253 254 256 258 259 260 262 263 265 265 266 267 267 268 268 267 266 266 265 263 262 261 260 260 261 261 260 258 255 252 249 249 252 253 253 255 259 260 261 261
218 219 221 225 228 228 229 230 231 232 232 233 234 234 233 233 233 234 234 234 234 234 234 235 236 237 238 239 240 240 241 243 245 246 247 247 247 249 250 252 253 253 253 254 255 256 257 259 261 262 263 264 264 265 265 266 267 268 269 269 268 268 267 266 265 263 262 261 263 263 262 262 263 261 258 257 257 257 255 253 255 257 258 259 260
219 222 224 227 229 230 230 231 231 232 233 234 235 235 234 233 233 234 235 235 235 235 235 235 236 238 239 241 241 242 242 244 246 247 248 249 249 250 251 253 255 255 256 257 258 260 261 262 264 265 265 266 266 267 267 267 267 268 269 269 268 268 267 267 266 265 264 263 264 264 262 264 267 267 265 264 261 259 258 257 256 256 255 255 258
220 223 226 228 229 230 231 231 232 233 234 234 235 235 234 233 233 233 235 235 236 237 237 237 237 238 240 241 243 244 245 247 249 249 250 250 250 250 252 254 256 257 258 259 261 263 264 265 267 267 268 269 270 270 270 270 270 271 271 271 270 269 268 268 267 266 265 265 266 266 264 266 269 270 269 268 266 263 260 258 257 256 255 254 256
221 224 227 228 230 231 232 233 233 233 234 235 235 235 234 234 234 233 234 235 236 237 238 238 238 238 239 242 244 246 248 250 251 251 252 253 253 252 252 254 256 258 259 261 263 265 266 267 268 269 271 272 272 272 272 273 273 273 272 272 270 269 269 269 268 267 266 266 266 267 267 268 269 271 271 271 270 266 263 260 258 257 256 255 257
222 224 227 228 230 232 233 233 234 235 236 236 235 234 235 235 235 234 234 234 235 237 239 239 240 240 240 242 245 247 250 251 252 252 253 254 255 254 254 255 257 259 261 262 264 265 267 268 269 271 273 273 273 274 274 275 276 275 275 273 272 271 271 270 269 267 266 265 265 267 270 269 270 273 275 272 270 269 267 266 264 261 260 262 263
222 225 227 229 231 232 232 233 234 236 236 236 236 236 236 237 236 235 234 234 236 238 239 240 241 241 242 243 246 248 251 252 253 254 254 255 255 255 256 256 257 259 261 263 264 266 268 269 270 272 274 274 274 275 275 276 277 277 277 276 275 275 274 273 271 269 268 267 267 269 273 272 273 276 276 273 271 271 272 272 271 268 266 266 264
222 225 227 229 230 232 233 233 234 236 236 236 236 237 238 238 238 237 235 235 237 238 239 240 242 242 243 244 245 248 252 253 253 254 255 255 255 256 256 257 258 259 261 263 264 267 268 269 271 272 274 275 275 276 276 277 277 276 276 277 277 277 278 278 275 272 271 270 270 271 273 274 274 276 276 274 273 273 272 270 268 264 260 259 259
222 224 227 229 230 232 233 234 235 236 236 236 237 238 239 240 239 238 236 236 237 238 239 241 242 243 244 244 245 248 252 253 253 255 256 256 255 256 257 258 259 260 262 264 266 267 269 270 272 273 275 277 277 278 278 277 276 276 276 276 276 277 280 280 276 274 273 272 271 272 272 273 272 272 272 271 271 271 268 264 262 259 255 253 254
224 225 226 229 231 232 234 235 236 237 237 238 239 240 241 241 240 239 238 238 238 239 240 241 242 243 244 245 246 249 252 253 253 254 256 256 256 257 258 260 261 262 264 266 267 269 270 271 272 273 276 278 279 279 279 277 276 276 276 276 275 276 279 278 275 276 278 276 275 274 273 273 271 268 268 267 267 267 263 261 260 257 252 251 252
227 227 228 230 231 233 235 236 236 237 238 240 242 243 243 243 242 241 241 241 241 241 240 240 242 244 245 246 247 249 250 252 252 253 254 254 255 256 257 259 260 262 264 266 267 269 270 272 273 274 276 279 280 279 278 276 276 276 276 275 273 274 277 278 276 278 279 278 279 279 279 278 276 272 270 268 266 264 262 260 258 253 250 251 251
231 231 231 232 233 234 235 236 237 238 239 241 243 244 245 244 243 242 242 243 243 243 241 241 242 244 246 246 247 248 249 250 251 253 254 254 254 254 255 256 258 261 264 266 268 270 272 273 275 277 280 283 283 283 282 279 277 278 277 274 273 276 281 280 278 278 277 277 279 280 280 281 279 275 272 269 265 263 261 260 256 251 249 250 249
234 233 233 233 234 234 235 236 237 239 240 242 243 243 244 244 243 243 242 243 244 244 243 243 243 245 246 247 247 248 249 250 252 254 255 255 255 255 256 257 260 262 265 266 268 270 272 274 277 279 280 281 282 282 282 282 280 280 279 277 278 283 285 284 281 278 275 276 278 278 277 277 275 273 271 268 266 263 261 259 256 252 249 247 246
236 235 234 234 234 235 236 236 237 237 238 239 240 241 242 243 243 244 243 243 243 244 244 244 244 246 247 247 248 249 250 252 254 256 257 257 258 258 259 261 263 265 266 268 269 271 274 276 277 277 276 277 278 279 280 280 280 280 281 283 285 287 287 285 283 278 276 278 279 277 276 275 273 271 270 267 266 264 261 259 257 254 251 248 246
238 238 237 236 235 235 236 236 236 235 235 235 236 238 240 241 242 242 242 242 243 243 244 245 245 246 247 247 248 250 252 254 256 257 257 258 259 260 261 263 265 265 266 268 270 272 274 274 274 274 276 277 278 280 280 280 280 281 282 284 286 286 285 284 283 280 279 279 278 276 277 277 275 273 271 269 268 266 262 260 258 256 254 252 248
235 239 240 240 239 237 236 235 235 234 234 233 233 235 237 239 240 241 242 242 242 242 244 244 245 246 247 247 247 248 249 251 252 253 253 253 255 256 257 259 259 258 260 262 265 268 269 271 272 275 277 279 280 282 282 283 283 283 284 284 285 285 284 284 284 283 282 282 281 280 281 281 280 278 276 273 271 268 265 263 259 255 253 252 250
231 235 239 241 241 240 237 235 234 233 233 232 231 232 234 236 238 239 240 240 241 242 243 244 245 246 246 245 244 245 246 246 247 249 249 249 250 249 248 249 251 253 255 259 262 265 268 272 275 277 278 280 281 282 283 284 284 284 285 285 284 284 284 284 284 284 283 283 284 284 283 283 282 281 280 277 274 271 268 264 259 253 252 252 250
231 232 235 238 240 240 238 236 233 231 232 232 232 233 233 235 236 237 238 238 239 241 242 243 244 244 244 244 243 243 244 244 245 247 247 245 244 242 242 245 247 250 254 258 262 266 270 273 275 276 278 279 281 283 284 284 284 283 283 283 283 283 284 283 283 283 283 283 283 283 282 282 281 281 280 278 275 272 270 266 259 254 253 252 248
232 231 232 235 236 237 238 236 231 228 228 230 231 232 233 234 235 235 236 236 236 238 239 240 241 242 242 241 241 241 242 242 242 243 243 242 241 240 242 243 245 248 252 257 262 265 268 270 272 275 278 280 282 284 284 285 285 285 286 287 288 288 288 287 286 286 286 287 287 286 286 284 282 280 278 276 273 271 270 268 262 257 254 250 244
233 230 230 231 232 233 235 234 229 225 224 224 225 226 227 230 232 234 235 236 237 238 239 239 240 240 239 239 238 238 239 240 240 241 241 242 242 243 245 246 248 253 256 259 262 265 268 272 276 279 282 284 285 286 287 288 290 292 295 298 299 299 297 294 293 292 292 294 294 294 293 291 287 284 280 277 274 272 270 269 266 261 254 245 237
231 227 227 227 227 227 228 228 226 223 221 220 219 219 220 223 227 231 234 237 239 241 241 241 239 236 235 235 235 235 235 236 237 238 239 241 244 247 250 252 254 257 261 264 270 274 278 281 283 285 288 290 291 292 294 296 298 300 303 305 307 308 307 306 305 305 308 311 312 313 314 309 301 294 286 280 276 274 270 268 266 261 251 241 236
224 222 223 223 220 220 222 222 221 221 220 219 217 215 215 218 222 227 231 234 237 238 239 238 237 234 232 231 231 231 231 230 231 233 237 242 246 249 252 254 257 263 270 275 280 282 284 287 289 291 294 296 299 304 307 310 312 313 314 316 318 319 323 328 331 333 335 335 333 332 331 326 318 307 295 283 277 273 269 267 266 259 248 239 235
221 218 218 218 216 216 217 216 216 216 216 216 216 214 213 214 217 222 227 229 230 231 232 232 231 230 228 227 225 223 224 225 226 228 232 236 240 244 250 255 263 272 276 279 281 283 287 291 294 298 303 308 313 318 320 322 327 331 336 341 342 340 345 353 353 350 346 341 337 335 334 330 323 313 300 289 281 274 268 266 264 257 247 239 234
220 215 213 213 213 213 213 212 211 212 211 212 213 214 213 213 211 212 216 219 220 220 222 224 224 220 218 220 222 222 221 221 221 222 224 228 235 243 251 257 264 269 272 275 281 286 292 297 300 306 312 316 320 325 329 337 347 353 355 358 359 358 357 356 352 347 344 343 341 341 341 337 328 317 305 294 285 279 271 264 261 257 249 239 233
218 214 210 207 206 206 207 207 208 209 210 210 210 211 214 214 210 201 195 197 203 204 204 207 209 206 205 209 215 217 215 213 214 217 223 231 238 243 247 251 256 261 266 274 283 290 296 301 307 313 315 320 328 337 344 350 355 357 358 359 0 359 355 351 347 344 344 346 348 347 347 344 336 324 311 298 288 283 277 268 262 258 251 241 233
216 213 208 205 203 203 204 205 206 206 206 206 206 207 209 212 211 204 193 187 188 187 185 187 192 198 203 203 204 207 208 209 213 221 227 230 231 233 238 245 254 262 269 277 285 294 301 306 312 316 320 332 345 349 353 356 356 355 355 355 356 354 351 350 348 347 347 351 352 352 352 351 345 332 318 304 292 286 283 275 267 261 254 245 236
214 211 209 206 205 205 205 206 205 202 200 199 200 202 202 202 203 202 196 190 186 182 180 179 179 186 196 198 194 194 198 202 208 215 219 221 225 233 242 252 260 267 274 282 292 302 306 311 316 321 332 352 359 359 2 2 358 355 354 354 353 352 351 351 351 352 354 357 358 359 1 2 357 346 329 311 299 290 283 279 275 269 261 249 237
214 211 209 207 206 206 206 204 202 199 197 196 196 196 196 194 193 190 188 187 185 181 179 174 166 163 169 178 179 181 188 197 205 210 215 221 229 238 248 254 259 265 273 285 299 306 310 317 323 332 349 3 6 3 2 1 358 355 353 352 353 354 355 355 354 356 1 5 6 9 11 10 6 359 345 325 311 301 291 285 279 274 267 255 239
210 208 204 201 200 199 197 195 194 193 192 190 188 185 184 184 182 179 177 177 175 173 172 169 165 163 165 169 175 182 186 190 195 201 207 214 224 234 242 245 249 257 270 289 305 312 320 324 323 334 355 1 357 353 350 352 356 355 351 350 351 354 358 358 357 1 6 9 11 16 19 19 16 10 360 347 334 313 293 282 274 268 267 252 226
194 195 193 192 191 189 186 184 182 180 180 181 180 177 175 173 170 167 165 163 163 163 162 163 169 173 172 170 172 179 184 185 188 195 204 211 216 222 228 231 240 256 274 300 321 326 331 327 312 316 335 340 339 340 340 343 350 355 355 353 351 352 358 1 1 3 10 14 18 25 30 34 36 35 31 27 22 19 21 269 239 203 119 110 129
177 177 177 179 181 180 176 173 173 172 170 170 169 167 165 162 158 157 157 155 154 153 152 153 159 164 167 168 170 175 183 188 191 194 198 204 208 213 221 232 243 252 269 322 346 342 338 331 322 327 334 331 328 329 331 336 343 351 355 355 351 352 1 8 8 6 12 19 26 32 37 42 49 54 58 63 66 73 83 92 99 104 103 101 102
160 161 163 166 168 168 165 163 164 164 161 158 156 156 155 154 154 156 156 153 149 146 144 145 145 141 142 149 157 168 183 193 196 194 192 193 202 215 223 230 234 238 262 333 347 341 336 338 340 343 344 339 335 335 337 342 348 354 358 0 359 359 7 16 17 13 15 23 32 38 41 43 49 55 61 68 76 83 88 94 98 99 102 107 112
151 152 154 155 156 156 155 154 153 153 152 151 151 150 150 149 149 150 148 145 141 139 139 138 134 129 130 135 141 152 170 180 186 189 189 190 197 205 205 205 210 221 272 333 338 330 330 342 353 356 358 359 0 1 3 6 10 9 8 9 9 8 11 18 20 18 18 22 29 36 40 40 43 51 58 62 68 74 81 90 97 100 104 110 116
153 150 148 147 147 147 148 147 147 148 148 149 148 147 145 143 142 142 141 140 139 141 141 137 131 127 125 123 120 126 138 144 150 160 169 174 177 180 181 183 190 202 247 8 16 3 1 8 12 13 15 19 20 19 19 21 20 17 13 12 12 12 13 13 13 16 21 22 20 23 31 36 38 44 52 57 61 65 70 76 81 87 93 100 105
154 149 146 146 146 145 145 146 146 147 147 147 148 149 148 147 146 146 146 146 147 148 146 140 134 131 125 118 115 118 120 122 127 135 145 154 160 162 160 155 147 133 103 72 65 55 43 38 35 30 26 28 29 28 27 27 25 23 21 18 13 10 11 12 10 13 22 30 26 21 23 31 35 37 41 43 47 53 61 69 75 82 89 95 99
151 147 145 146 146 145 145 146 147 147 147 148 149 151 151 150 149 149 149 148 149 150 146 141 140 141 137 133 134 134 130 130 135 138 138 139 139 139 138 131 120 109 101 97 96 90 77 68 62 51 39 37 38 35 32 32 32 32 35 36 32 24 17 16 18 20 24 34 38 34 31 35 38 40 43 45 46 48 54 64 77 88 95 98 101
148 147 146 146 145 145 146 148 148 148 148 149 148 148 148 149 150 151 152 151 149 148 147 144 146 150 151 150 150 148 143 141 141 136 130 125 123 124 132 135 131 129 134 149 160 143 116 107 103 87 66 59 55 45 36 36 39 40 43 46 45 37 25 20 23 26 28 36 43 44 45 50 52 51 53 58 64 68 71 74 80 89 97 105 113
148 147 147 147 146 147 147 147 147 147 147 147 146 145 147 150 152 154 154 153 152 151 151 150 153 160 163 164 165 161 156 154 152 149 149 149 147 151 157 158 162 170 179 195 225 258 274 220 200 147 79 75 69 57 43 41 42 42 43 45 45 39 29 25 26 28 31 41 52 56 60 65 67 66 67 71 79 87 90 92 95 99 107 117 126
148 145 143 142 142 143 144 145 147 149 149 150 150 151 151 153 154 155 155 154 154 154 154 155 159 163 164 168 174 177 175 176 178 177 180 215 230 216 217 229 232 229 236 251 261 269 274 269 264 272 3 59 55 47 41 36 33 33 34 36 37 35 31 29 29 28 26 31 43 54 62 71 75 75 76 79 85 92 96 99 102 104 107 114 118
156 151 146 144 144 143 144 146 150 153 153 153 154 154 154 154 155 156 156 156 156 156 157 162 168 170 169 172 178 180 179 180 183 185 204 269 259 234 230 236 241 244 256 262 258 257 262 267 269 271 269 297 358 12 20 20 17 16 18 17 17 20 21 19 19 21 22 20 19 20 22 33 53 69 76 77 80 86 94 101 103 103 107 116 127
158 154 151 151 151 150 150 153 156 157 157 157 157 156 157 158 158 158 158 159 160 161 162 164 166 169 172 177 182 183 183 185 191 211 239 255 254 242 238 241 244 248 255 257 252 251 256 265 275 282 274 273 303 324 325 329 336 335 337 346 351 351 349 349 352 360 6 6 3 357 349 343 342 350 14 40 58 73 95 118 128 136 145 150 154
144 142 138 138 139 140 142 146 146 145 145 147 148 146 144 143 140 138 139 143 145 148 153 158 162 169 180 190 198 205 208 207 212 225 232 232 232 231 231 234 237 238 240 242 243 244 250 259 271 282 282 279 284 294 297 299 300 299 299 308 318 318 314 315 323 333 342 347 346 341 333 322 312 309 318 353 20 19 24 135 150 156 159 161 164
116 114 114 115 117 119 120 120 119 118 118 119 120 120 119 118 116 115 116 119 122 126 134 142 149 156 168 180 191 203 211 213 217 224 222 216 215 218 221 226 230 229 229 231 231 231 236 246 257 267 276 280 282 285 289 289 288 286 288 295 301 302 301 301 301 301 302 305 309 308 301 288 271 258 249 244 252 264 268 264 256 247 226 196 179